Total_Precipitation_Accumulation
4.57 4.50 4.43 4.62 4.22 4.31 4.70 4.76 4.44 4.49 4.52 4.23 3.78 3.59 3.58 3.47 3.52 3.41 3.52 3.69 3.48 3.60 4.08 4.13 4.02 3.80 3.62 3.23 2.95 2.79 2.67 2.53 2.23 1.84 1.71 1.68 1.64 1.54 1.52 1.53 1.42 1.31 1.23
4.51 4.62 4.59 4.63 4.16 4.02 4.20 4.31 4.18 4.39 4.36 4.21 3.75 3.47 3.40 3.59 3.64 3.48 3.56 3.86 3.72 3.41 3.61 3.95 4.23 4.29 4.11 3.90 3.55 3.23 3.07 2.89 2.45 1.89 1.63 1.60 1.62 1.58 1.68 1.76 1.61 1.43 1.32
4.54 4.75 4.72 4.54 4.39 4.32 4.31 4.22 4.19 4.49 4.20 4.02 3.83 3.71 3.61 3.62 3.47 3.44 3.49 3.74 3.37 3.18 3.22 3.39 3.80 4.16 4.50 4.68 4.48 4.11 3.63 3.11 2.57 2.07 1.76 1.61 1.52 1.51 1.62 1.69 1.71 1.57 1.38
4.12 4.62 4.45 4.22 4.43 4.54 4.61 4.51 4.37 4.45 4.49 4.53 4.38 4.17 3.91 3.76 3.11 3.05 3.14 3.24 3.39 2.93 3.05 3.31 3.46 3.67 4.27 4.90 5.29 5.22 4.49 3.68 3.03 2.45 2.11 1.87 1.77 1.75 1.69 1.66 1.70 1.64 1.48
3.27 3.54 3.62 3.73 3.82 4.03 3.96 3.65 4.04 4.24 4.47 4.62 4.33 4.14 3.71 3.55 3.24 3.08 3.13 2.84 3.00 3.03 3.09 3.15 3.40 3.45 4.02 4.99 6.00 6.29 5.74 4.79 3.91 3.14 2.76 2.53 2.35 2.13 1.98 1.87 1.80 1.74 1.60
2.90 3.10 2.97 3.08 3.29 3.61 3.74 3.85 4.11 3.98 3.87 4.07 3.69 3.75 3.57 3.29 3.20 3.13 2.92 2.87 2.88 2.78 2.90 3.15 3.46 3.12 3.66 4.58 5.54 6.12 6.27 5.80 4.89 4.08 3.65 3.32 3.16 2.78 2.26 2.01 1.87 1.79 1.68
2.90 3.21 2.94 3.33 3.32 3.42 3.44 3.42 3.60 3.54 3.29 3.42 3.98 3.98 3.52 3.21 3.18 3.04 2.89 3.01 2.81 2.74 2.95 3.24 3.52 3.55 3.21 3.27 3.85 4.57 5.48 6.09 5.67 4.90 4.39 4.01 3.80 3.29 2.63 2.35 2.05 1.88 1.80
2.80 2.89 3.10 2.97 3.04 3.27 3.15 3.11 3.46 3.44 3.06 3.19 3.80 4.12 3.93 3.92 3.59 2.86 2.86 2.99 2.92 2.92 2.91 2.95 3.32 3.62 3.44 3.69 3.13 3.22 4.29 5.35 5.92 5.83 5.24 4.46 3.87 3.32 2.86 2.69 2.39 2.13 2.02
2.46 2.63 2.74 2.89 3.05 2.95 3.05 3.13 3.22 3.35 3.27 3.15 3.28 3.92 3.91 3.77 3.63 3.28 2.90 2.82 2.98 3.17 3.03 3.01 2.99 3.12 3.23 3.65 3.58 3.20 3.48 3.83 4.98 5.95 5.76 4.79 3.83 3.17 2.90 2.96 2.90 2.51 2.23
2.28 2.22 2.39 2.67 2.84 2.79 3.05 2.76 2.94 3.24 3.36 3.11 3.16 3.27 3.30 3.43 3.61 3.44 3.04 2.72 2.73 2.78 2.83 2.74 2.85 3.02 3.14 3.43 3.58 3.21 2.83 2.86 3.57 4.64 5.17 5.01 4.23 3.36 2.98 3.14 3.51 3.39 2.86
2.22 2.10 2.21 2.48 2.64 2.72 2.84 2.85 3.16 3.10 3.04 3.04 3.06 3.18 3.33 3.30 3.12 3.18 3.20 2.92 2.73 2.50 2.51 2.63 2.80 3.04 3.07 3.21 3.46 3.22 2.95 2.79 2.71 3.00 3.58 4.06 4.14 3.83 3.49 3.53 4.11 4.52 4.34
2.31 2.39 2.37 2.46 2.45 2.53 2.62 2.72 2.95 2.97 2.95 3.01 2.91 2.85 3.14 3.30 3.29 3.33 3.17 2.90 2.74 2.45 2.35 2.40 2.66 2.94 3.06 3.03 2.73 2.75 2.75 2.75 2.59 2.48 2.59 2.85 3.24 3.50 3.69 4.00 4.52 5.12 5.45
2.01 2.29 2.47 2.57 2.59 2.60 2.56 2.67 2.72 2.74 2.82 2.95 2.87 2.75 2.77 2.82 3.05 3.28 3.31 2.93 2.71 2.43 2.58 2.52 2.43 2.50 2.55 2.71 2.78 2.79 2.51 2.52 2.34 2.22 2.27 2.40 2.60 2.88 3.15 3.41 3.86 4.40 4.83
1.69 1.92 2.21 2.33 2.35 2.34 2.37 2.83 2.62 2.55 2.72 2.79 2.70 3.03 2.87 2.65 2.86 3.06 3.24 3.34 3.11 2.92 2.98 2.78 2.46 2.37 2.45 2.56 2.71 2.68 2.23 2.26 2.12 2.01 1.84 1.81 1.86 1.94 2.13 2.38 2.68 2.95 3.25
1.73 1.80 1.87 2.17 2.30 2.30 2.36 2.61 2.55 2.50 2.65 2.63 2.77 3.04 2.98 2.80 2.81 2.84 3.10 3.46 3.70 3.49 3.19 2.87 2.53 2.30 2.32 2.39 2.46 2.12 2.01 2.26 2.07 1.85 1.73 1.66 1.65 1.65 1.68 1.74 1.77 1.86 1.93
1.76 1.84 1.94 1.96 2.08 2.24 2.38 2.55 2.41 2.36 2.50 2.58 2.73 2.90 2.88 2.75 2.79 2.72 2.85 3.17 3.50 3.60 3.23 2.75 2.57 2.38 2.31 2.05 2.19 1.93 1.88 2.07 1.91 1.81 1.75 1.67 1.58 1.57 1.58 1.55 1.49 1.48 1.50
1.72 1.75 1.82 1.92 1.96 2.08 2.36 2.66 2.56 2.55 2.60 2.60 2.59 2.76 2.84 2.98 3.01 2.89 2.89 2.93 3.12 3.36 3.13 2.76 2.63 2.54 2.33 2.11 2.01 1.87 1.75 1.73 1.70 1.76 1.66 1.60 1.50 1.42 1.45 1.45 1.43 1.38 1.32
1.70 1.63 1.71 1.79 1.74 1.88 2.18 2.47 2.60 2.72 2.85 2.80 2.83 3.00 2.99 2.99 2.95 2.85 2.91 2.89 2.93 3.20 3.13 2.85 2.80 2.73 2.54 2.26 2.15 2.07 1.76 1.63 1.67 1.94 1.81 1.62 1.58 1.58 1.49 1.37 1.30 1.28 1.29
1.82 1.82 1.85 1.82 1.94 2.08 2.16 2.32 2.48 2.54 2.65 2.71 2.84 2.90 2.86 2.98 2.87 2.85 2.74 2.71 2.76 2.93 3.22 3.02 2.90 2.93 2.84 2.55 2.40 2.21 1.99 1.98 1.65 1.77 1.84 1.73 1.67 1.65 1.55 1.41 1.34 1.31 1.24
1.89 1.93 1.94 1.96 2.06 2.14 2.11 2.17 2.33 2.44 2.50 2.56 2.69 2.77 2.83 2.85 2.88 3.00 2.85 2.82 2.96 3.08 3.23 3.16 3.03 3.11 3.14 2.96 2.72 2.48 2.29 2.11 1.85 1.59 1.71 1.72 1.71 1.66 1.58 1.49 1.40 1.34 1.32
1.93 2.04 2.10 2.07 2.06 1.97 1.88 2.14 2.28 2.28 2.47 2.50 2.50 2.48 2.56 2.80 2.85 2.88 2.66 2.80 3.01 3.02 2.99 3.01 2.97 3.13 3.18 3.13 2.85 2.56 2.39 2.31 2.11 1.87 1.77 1.56 1.56 1.58 1.61 1.64 1.63 1.56 1.45
2.15 2.26 2.29 2.30 2.21 1.94 2.14 2.18 2.19 2.32 2.45 2.45 2.44 2.38 2.28 2.30 2.38 2.50 2.51 2.53 2.66 2.79 2.89 2.92 2.88 2.96 3.02 3.03 2.99 2.78 2.59 2.44 2.28 2.20 2.26 2.07 1.84 1.83 1.70 1.59 1.70 1.66 1.55
2.30 2.34 2.31 2.34 2.30 2.29 2.27 2.00 1.93 1.95 2.05 2.09 2.08 2.08 1.87 1.78 2.12 2.17 2.34 2.31 2.19 2.22 2.32 2.55 2.66 2.64 2.83 2.96 3.12 2.90 2.77 2.61 2.36 2.33 2.50 2.35 2.14 1.98 1.74 1.68 1.87 1.69 1.62
2.59 2.54 2.47 2.50 2.54 2.47 2.46 2.10 1.99 1.87 1.88 1.86 1.83 1.81 1.85 1.85 1.89 2.07 2.15 2.12 2.02 1.97 2.02 2.03 2.13 2.36 2.59 2.89 3.07 3.05 3.07 2.87 2.54 2.37 2.47 2.43 2.16 2.06 1.86 1.82 1.90 1.76 1.61
3.07 2.99 2.94 2.97 2.94 2.97 2.96 2.56 2.39 2.12 2.03 1.92 1.93 1.98 2.01 1.86 1.91 1.95 1.99 1.96 1.91 1.93 1.97 2.00 1.98 2.13 2.35 2.54 2.86 2.96 2.95 2.86 2.56 2.40 2.42 2.41 2.22 2.21 2.11 1.92 1.80 1.82 1.54
3.50 3.50 3.51 3.51 3.41 3.37 3.32 2.89 2.70 2.42 2.35 2.27 2.29 2.14 2.04 1.84 1.77 1.72 1.73 1.78 1.70 1.69 1.86 1.94 1.93 1.97 2.09 2.29 2.59 2.62 2.64 2.76 2.55 2.36 2.19 2.31 2.29 2.35 2.35 2.02 1.74 1.65 1.58